When you browse on this site, cookies collect data to enhance your experience and personalize the content and advertising you see.
Visit our Privacy Policy to learn more. By continuing to use the site, you agree to this use of cookies and data.
  • In Spain
  • List of Countries
  • For 7 days
  • Water Temperature
  • Satellite Maps
  • Weather Map
  • Weather Widgets
  • user-avatar
    Login

    Hourly Weather Kalat

    Today, 21 November, Wednesday

    Time Temperature Precipitation Wind Pressure Humidity
    00:00 -15°C° 0 mm 3 mps 471 mmHg 55%
    01:00 -15°C° 0 mm 3 mps 471 mmHg 53%
    02:00 -15°C° 0 mm 3 mps 471 mmHg 51%
    03:00 -15°C° 0 mm 3 mps 471 mmHg 49%
    04:00 -15°C° 0 mm 3 mps 470 mmHg 48%
    05:00 -15°C° 0 mm 3 mps 470 mmHg 46%
    06:00 -14°C° 0 mm 3 mps 471 mmHg 47%
    07:00 -14°C° 0 mm 3 mps 471 mmHg 47%
    08:00 -13°C° 0 mm 3 mps 471 mmHg 47%
    09:00 -11°C° 0 mm 4 mps 473 mmHg 50%
    10:00 -9°C° 0 mm 4 mps 474 mmHg 53%
    11:00 -5°C° 0 mm 4 mps 476 mmHg 56%
    12:00 -5°C° 0 mm 4 mps 475 mmHg 57%
    13:00 -5°C° 0 mm 4 mps 475 mmHg 58%
    14:00 -4°C° 0 mm 4 mps 475 mmHg 60%
    15:00 -7°C° 0.1 mm 4 mps 474 mmHg 64%
    16:00 -8°C° 0.1 mm 4 mps 473 mmHg 67%
    17:00 -9°C° 0.1 mm 4 mps 472 mmHg 71%
    18:00 -10°C° 0.1 mm 4 mps 472 mmHg 73%
    19:00 -10°C° 0.1 mm 4 mps 472 mmHg 74%
    20:00 -10°C° 0.1 mm 4 mps 472 mmHg 76%
    21:00 -10°C° 0.1 mm 4 mps 472 mmHg 77%
    22:00 -10°C° 0.1 mm 4 mps 472 mmHg 78%
    23:00 -10°C° 0.1 mm 4 mps 472 mmHg 79%

    Tomorrow, 22 November, Thursday

    Time Temperature Precipitation Wind Pressure Humidity
    00:00 -10°C° 0.2 mm 4 mps 472 mmHg 80%
    01:00 -11°C° 0.2 mm 4 mps 472 mmHg 81%
    02:00 -11°C° 0.2 mm 4 mps 472 mmHg 82%
    03:00 -10°C° 0.3 mm 3 mps 472 mmHg 83%
    04:00 -10°C° 0.3 mm 3 mps 472 mmHg 83%
    05:00 -10°C° 0.3 mm 3 mps 472 mmHg 84%
    06:00 -10°C° 0.4 mm 3 mps 472 mmHg 85%
    07:00 -10°C° 0.4 mm 3 mps 473 mmHg 85%
    08:00 -9°C° 0.4 mm 3 mps 473 mmHg 85%
    09:00 -9°C° 0.3 mm 3 mps 474 mmHg 83%
    10:00 -8°C° 0.3 mm 3 mps 474 mmHg 82%
    11:00 -7°C° 0.3 mm 3 mps 475 mmHg 80%
    12:00 -7°C° 0.2 mm 3 mps 475 mmHg 79%
    13:00 -7°C° 0.2 mm 3 mps 474 mmHg 79%
    14:00 -7°C° 0.2 mm 3 mps 474 mmHg 78%
    15:00 -7°C° 0.1 mm 2 mps 474 mmHg 81%
    16:00 -7°C° 0.1 mm 2 mps 473 mmHg 83%
    17:00 -8°C° 0.1 mm 2 mps 473 mmHg 86%
    18:00 -9°C° 0.1 mm 2 mps 473 mmHg 85%
    19:00 -10°C° 0.1 mm 2 mps 473 mmHg 85%
    20:00 -10°C° 0.1 mm 2 mps 473 mmHg 85%
    21:00 -12°C° 0 mm 2 mps 472 mmHg 82%
    22:00 -13°C° 0 mm 2 mps 472 mmHg 80%
    23:00 -15°C° 0 mm 3 mps 471 mmHg 77%

    Day after tomorrow, 23 November, Friday

    Time Temperature Precipitation Wind Pressure Humidity
    00:00 -15°C° 0 mm 3 mps 471 mmHg 75%
    01:00 -15°C° 0 mm 3 mps 471 mmHg 72%
    02:00 -15°C° 0 mm 3 mps 471 mmHg 69%
    03:00 -15°C° 0 mm 3 mps 471 mmHg 67%
    04:00 -15°C° 0 mm 3 mps 471 mmHg 65%
    05:00 -15°C° 0 mm 3 mps 471 mmHg 63%
    06:00 -15°C° 0 mm 3 mps 472 mmHg 61%
    07:00 -14°C° 0 mm 3 mps 472 mmHg 59%
    08:00 -14°C° 0 mm 3 mps 473 mmHg 57%
    09:00 -12°C° 0 mm 3 mps 474 mmHg 57%
    10:00 -8°C° 0 mm 3 mps 476 mmHg 56%
    11:00 -6°C° 0 mm 3 mps 477 mmHg 56%
    12:00 -5°C° 0 mm 3 mps 477 mmHg 56%
    13:00 -4°C° 0 mm 2 mps 477 mmHg 56%
    14:00 -3°C° 0 mm 2 mps 477 mmHg 57%
    15:00 -5°C° 0 mm 2 mps 476 mmHg 61%
    16:00 -7°C° 0 mm 2 mps 475 mmHg 64%
    17:00 -7°C° 0 mm 1 mps 474 mmHg 68%
    18:00 -9°C° 0 mm 2 mps 474 mmHg 66%
    19:00 -9°C° 0 mm 2 mps 474 mmHg 65%
    20:00 -9°C° 0 mm 2 mps 474 mmHg 63%
    21:00 -12°C° 0 mm 3 mps 474 mmHg 61%
    22:00 -12°C° 0 mm 3 mps 474 mmHg 58%
    23:00 -12°C° 0 mm 3 mps 473 mmHg 55%

    24 November, Saturday

    Time Temperature Precipitation Wind Pressure Humidity
    00:00 -12°C° 0 mm 3 mps 473 mmHg 53%
    01:00 -12°C° 0 mm 3 mps 473 mmHg 51%
    02:00 -12°C° 0 mm 3 mps 473 mmHg 50%
    03:00 -12°C° 0 mm 3 mps 473 mmHg 49%
    04:00 -12°C° 0 mm 3 mps 473 mmHg 48%
    05:00 -10°C° 0 mm 3 mps 473 mmHg 47%
    06:00 -10°C° 0 mm 3 mps 473 mmHg 47%
    07:00 -9°C° 0 mm 3 mps 474 mmHg 46%
    08:00 -9°C° 0 mm 3 mps 475 mmHg 46%
    09:00 -5°C° 0 mm 2 mps 476 mmHg 48%
    10:00 -3°C° 0 mm 2 mps 478 mmHg 50%
    11:00 -1°C° 0 mm 2 mps 479 mmHg 52%
    12:00 -1°C° 0 mm 2 mps 479 mmHg 54%
    13:00 -1°C° 0 mm 2 mps 479 mmHg 55%
    14:00 +1°C° 0 mm 2 mps 479 mmHg 56%
    15:00 -2°C° 0 mm 2 mps 478 mmHg 58%
    16:00 -4°C° 0 mm 2 mps 477 mmHg 61%
    17:00 -5°C° 0 mm 2 mps 476 mmHg 63%
    18:00 -6°C° 0 mm 2 mps 476 mmHg 66%
    19:00 -6°C° 0 mm 2 mps 476 mmHg 69%
    20:00 -7°C° 0 mm 2 mps 476 mmHg 72%
    21:00 -7°C° 0 mm 2 mps 476 mmHg 73%
    22:00 -7°C° 0 mm 2 mps 476 mmHg 74%
    23:00 -7°C° 0 mm 1 mps 476 mmHg 75%

    25 November, Sunday

    Time Temperature Precipitation Wind Pressure Humidity
    00:00 -7°C° 0 mm 1 mps 475 mmHg 74%
    01:00 -7°C° 0 mm 1 mps 475 mmHg 74%
    02:00 -8°C° 0 mm 1 mps 475 mmHg 73%
    03:00 -8°C° 0 mm 1 mps 474 mmHg 73%
    04:00 -9°C° 0 mm 2 mps 474 mmHg 72%
    05:00 -9°C° 0 mm 2 mps 473 mmHg 71%
    06:00 -9°C° 0 mm 2 mps 474 mmHg 70%
    07:00 -9°C° 0 mm 2 mps 474 mmHg 69%
    08:00 -9°C° 0 mm 2 mps 475 mmHg 67%
    09:00 -6°C° 0 mm 1 mps 476 mmHg 63%
    10:00 -3°C° 0 mm 1 mps 477 mmHg 59%
    11:00 -1°C° 0 mm 1 mps 479 mmHg 56%
    12:00 0°C° 0 mm 1 mps 479 mmHg 57%
    13:00 0°C° 0 mm 1 mps 478 mmHg 58%
    14:00 +1°C° 0 mm 1 mps 478 mmHg 60%
    15:00 -1°C° 0 mm 1 mps 477 mmHg 62%
    16:00 -3°C° 0 mm 1 mps 475 mmHg 65%
    17:00 -4°C° 0 mm 1 mps 474 mmHg 68%
    18:00 -4°C° 0 mm 1 mps 474 mmHg 67%
    19:00 -6°C° 0 mm 2 mps 475 mmHg 65%
    20:00 -6°C° 0 mm 2 mps 475 mmHg 64%
    21:00 -7°C° 0 mm 2 mps 475 mmHg 63%
    22:00 -7°C° 0 mm 2 mps 475 mmHg 63%
    23:00 -8°C° 0 mm 3 mps 474 mmHg 62%

    26 November, Monday

    Time Temperature Precipitation Wind Pressure Humidity
    00:00 -9°C° 0 mm 3 mps 474 mmHg 61%
    01:00 -9°C° 0 mm 3 mps 474 mmHg 61%
    02:00 -9°C° 0 mm 3 mps 473 mmHg 60%
    03:00 -9°C° 0 mm 3 mps 473 mmHg 59%
    04:00 -9°C° 0 mm 3 mps 473 mmHg 58%
    05:00 -10°C° 0 mm 3 mps 473 mmHg 58%
    06:00 -9°C° 0 mm 3 mps 473 mmHg 57%
    07:00 -9°C° 0 mm 3 mps 473 mmHg 56%
    08:00 -9°C° 0 mm 3 mps 474 mmHg 56%
    09:00 -7°C° 0 mm 3 mps 475 mmHg 57%
    10:00 -5°C° 0 mm 3 mps 476 mmHg 57%
    11:00 -2°C° 0 mm 3 mps 478 mmHg 58%
    12:00 -1°C° 0 mm 3 mps 477 mmHg 59%
    13:00 -1°C° 0 mm 3 mps 477 mmHg 60%
    14:00 -1°C° 0 mm 3 mps 477 mmHg 61%
    15:00 -2°C° 0 mm 3 mps 476 mmHg 63%
    16:00 -5°C° 0 mm 3 mps 474 mmHg 65%
    17:00 -7°C° 0 mm 4 mps 473 mmHg 67%
    18:00 -8°C° 0 mm 4 mps 473 mmHg 67%
    19:00 -8°C° 0 mm 4 mps 473 mmHg 67%
    20:00 -8°C° 0 mm 4 mps 473 mmHg 67%
    21:00 -8°C° 0.1 mm 4 mps 473 mmHg 68%
    22:00 -8°C° 0.1 mm 4 mps 473 mmHg 69%
    23:00 -8°C° 0.1 mm 4 mps 474 mmHg 70%
    Show more